Proserpine, Queensland

6:48 AM AEST on February 13, 2016 (GMT +1000)
Proserpine

Weather History for 94365 - May, 2014

Change the Weather History Date:

Wednesday, May 7, 2014

  Actual Average Record
Temperature  
Mean Temperature 64 °F -  
Max Temperature 77 °F - - ()
Min Temperature 51 °F - - ()
Degree Days  
Heating Degree Days 1    
Growing Degree Days 14 (Base 50)    
Moisture  
Dew Point 58 °F    
Average Humidity 80    
Maximum Humidity 100    
Minimum Humidity 48    
Precipitation  
Precipitation 0.00 in - - ()
Sea Level Pressure  
Sea Level Pressure 30.04 in    
Wind  
Wind Speed 3 mph ()    
Max Wind Speed 14 mph    
Max Gust Speed -    
Visibility 7.1 miles    
Events      
T = Trace of Precipitation, MM = Missing Value Source: Averaged Metar Reports

Daily Weather History Graph

Daily Weather History Graph

Search for Another Location

Airport or City:

Trip Planner

Search our weather history database for the weather conditions in past years. The results will help you decide how hot, cold, wet, or windy it might be!

Date:

Astronomy

May. 07, 2014 Rise Set
Actual Time 6:24 AM AEST 5:40 PM AEST
Civil Twilight 6:01 AM AEST 6:03 PM AEST
Nautical Twilight 5:34 AM AEST 6:29 PM AEST
Astronomical Twilight 5:08 AM AEST 6:55 PM AEST
Moon 12:31 PM AEST (5/7) No Moon Set
Length of Visible Light 12h 01m
Length of Day
11h 15m
Waxing Crescent, 49% of the Moon is Illuminated
May 7
Waxing Crescent
May 7
First Quarter
May 15
Full
May 21
Last Quarter
May 29
New

Hourly Weather History & Observations

Time (AEST) Temp. Dew Point Humidity Pressure Visibility Wind Dir Wind Speed Gust Speed Precip Events Conditions
12:00 AM 56 °F 54 °F 89% 30.08 in - Calm Calm - -  
12:00 AM 55.4 °F 53.6 °F 94% 30.06 in 6.2 mi Calm Calm - N/A   Unknown
1:00 AM 55.4 °F 53.6 °F 94% 30.04 in 6.2 mi Calm Calm - N/A   Unknown
2:00 AM 55.4 °F 55.4 °F 100% 30.04 in 6.2 mi SSW 3.5 mph - N/A   Unknown
3:00 AM 54 °F 53 °F 93% 30.03 in - Calm Calm - -  
3:00 AM 53.6 °F 53.6 °F 100% 30.01 in 6.2 mi Calm Calm - N/A   Unknown
4:00 AM 51.8 °F 51.8 °F 100% 30.04 in 6.2 mi Calm Calm - N/A   Unknown
5:00 AM 51.8 °F 51.8 °F 100% 30.04 in 6.2 mi Calm Calm - N/A   Unknown
6:00 AM 54 °F 53 °F 97% 30.06 in - Calm Calm - -  
6:00 AM 53.6 °F 53.6 °F 100% 30.04 in 6.2 mi Calm Calm - N/A   Unknown
7:00 AM 57.2 °F 55.4 °F 94% 30.06 in 6.2 mi Calm Calm - N/A   Unknown
8:00 AM 62.6 °F 59.0 °F 88% 30.06 in 6.2 mi Calm Calm - N/A   Unknown
9:00 AM 67 °F 59 °F 69% 30.09 in 16 mi Calm Calm - -   Partly Cloudy
9:00 AM 68.0 °F 59.0 °F 73% 30.06 in 6.2 mi WSW 1.2 mph - N/A   Unknown
10:00 AM 73.4 °F 59.0 °F 61% 30.06 in 6.2 mi SSE 6.9 mph - N/A   Unknown
11:00 AM 75.2 °F 59.0 °F 57% 30.06 in 6.2 mi SE 12.7 mph - N/A   Unknown
12:00 PM 77 °F 61 °F 48% 30.04 in - SE 12.7 mph - -  
12:00 PM 75.2 °F 59.0 °F 57% 30.04 in 6.2 mi ESE 13.8 mph - N/A   Scattered Clouds
1:00 PM 77.0 °F 62.6 °F 61% 30.01 in 6.2 mi ESE 12.7 mph - N/A   Scattered Clouds
2:00 PM 77.0 °F 60.8 °F 57% 30.01 in 6.2 mi East 10.4 mph - N/A   Unknown
3:00 PM 77 °F 61 °F 48% 30.00 in 19 mi East 11.5 mph - -   Partly Cloudy
3:00 PM 77.0 °F 60.8 °F 57% 29.98 in 6.2 mi East 11.5 mph - N/A   Unknown
4:00 PM 75.2 °F 60.8 °F 61% 29.98 in 6.2 mi ESE 12.7 mph - N/A   Scattered Clouds
5:00 PM 73.4 °F 62.6 °F 69% 30.01 in 6.2 mi ESE 11.5 mph - N/A   Unknown
6:00 PM 68 °F 62 °F 74% 30.02 in - SE 5.8 mph - -  
6:00 PM 68.0 °F 60.8 °F 78% 30.01 in 6.2 mi SE 5.8 mph - N/A   Unknown
7:00 PM 66.2 °F 60.8 °F 83% 30.04 in 6.2 mi SSE 4.6 mph - N/A   Unknown
8:00 PM 62.6 °F 60.8 °F 94% 30.06 in 6.2 mi SSW 6.9 mph - N/A   Unknown
9:00 PM 62 °F 60 °F 91% 30.08 in - SW 3.5 mph - -  
9:00 PM 62.6 °F 60.8 °F 94% 30.06 in 6.2 mi SW 3.5 mph - N/A   Unknown
10:00 PM 60.8 °F 59.0 °F 94% 30.06 in 6.2 mi SSW 4.6 mph - N/A   Scattered Clouds
11:00 PM 60.8 °F 59.0 °F 94% 30.04 in 6.2 mi SSW 6.9 mph - N/A   Unknown